Home > Weather > Hilversum > Past weeks

Flag for Netherlands Past Weather in Hilversum, Netherlands — Yesterday and Last 2 Weeks

Now
60 °F

Overcast.


Feels Like: 60 °F
Forecast: 55 / 64 °F
Wind: 5 mph from South

Location: De Bilt

Current Time: Jun 26, 2016 at 1:59:51 PM

Latest Report: Jun 26, 2016 at 1:00 PM


Visibility: 19 mi

Pressure: 30.01 "Hg

Humidity: 83%

Dew Point: 55 °F

Location of HilversumLocation

Past Weather in Hilversum — Graph

°F

Hilversum Temperature Yesterday

Maximum temperature yesterday: 66 °F (at 12:00 PM)
Minimum temperature yesterday: 53 °F (at 6:00 AM)
Average temperature yesterday: 60 °F

High & Low Weather Summary for the Past Weeks

 TemperatureHumidityPressure
High82 °F (Jun 23, 5:00 PM)100% (Jun 15, 2:00 AM)30.26 "Hg (Jun 15, 2:00 AM)
Low49 °F (Jun 16, 6:00 AM)48% (Jun 16, 1:00 PM)29.44 "Hg (Jun 14, 12:00 PM)
Average62 °F84%29.88 "Hg
* Reported Jun 11 12:00 PM — Jun 26 12:00 PM, Hilversum, Weather by CustomWeather, © 2016

Note: Actual official high and low records may vary slightly from our data, if they occured in-between our weather recording intervals... More about our weather records

Advertising

Hilversum Weather History for the Previous 24 Hours

Scroll right to see more
 ConditionsComfort  
Time TempWeatherWind HumidityBarometerVisibility
12:00 PM
Sun, Jun 26
61 °FOvercast.3 mph83%30.01 "Hg19 mi
11:00 AM61 °FLight rain. Overcast.3 mph83%30.00 "Hg12 mi
10:00 AM63 °FPartly sunny.3 mph73%30.01 "Hg12 mi
9:00 AM59 °FLow clouds.3 mph85%30.00 "Hg7 mi
8:00 AM57 °FLow clouds.5 mph88%29.98 "Hg7 mi
7:00 AM56 °FPassing clouds.3 mph91%29.98 "Hg9 mi
6:00 AM55 °FOvercast.3 mph92%29.97 "Hg12 mi
5:00 AM54 °FPassing clouds.2 mph94%29.98 "Hg17 mi
4:00 AM55 °FPassing clouds.2 mph91%29.97 "Hg18 mi
3:00 AM55 °FClear.3 mph89%29.99 "Hg17 mi
2:00 AM55 °FClear.3 mph92%30.00 "Hg11 mi
1:00 AM52 °FClear.2 mph99%30.01 "Hg10 mi
12:00 AM53 °FClear.2 mph96%30.00 "Hg11 mi
11:00 PM
Sat, Jun 25
58 °FOvercast.2 mph85%30.00 "Hg22 mi
10:00 PM60 °FOvercast.2 mph78%30.00 "Hg22 mi
9:00 PM62 °FOvercast.5 mph73%29.99 "Hg22 mi
8:00 PM64 °FScattered clouds.2 mph72%29.98 "Hg22 mi
7:00 PM64 °FPartly sunny.2 mph75%29.98 "Hg17 mi
6:00 PM62 °FOvercast.2 mph83%29.99 "Hg12 mi
5:00 PM61 °FDrizzle. Overcast.2 mph89%29.98 "Hg9 mi
4:00 PM61 °FLight rain. Overcast.2 mph88%30.00 "Hg7 mi
3:00 PM63 °FSprinkles. Overcast.3 mph85%29.99 "Hg9 mi
2:00 PM65 °FOvercast.5 mph80%29.98 "Hg14 mi
1:00 PM66 °FOvercast.2 mph71%29.98 "Hg22 mi
Weather by CustomWeather, © 2016

See weather overviewHow to use our weather pages